This demonstration page uses our WeatherBlox Daily Observations layout. Learn more.

39.29038, -76.61219

Hourly Observations for April 24, 2018

Temp ( °F °C ) Dew Point ( °F °C ) Humidity (%) Winds ( mph kmh ) Pressure ( in mb ) Visibility ( mi km ) Precip ( " mm )
12:54 am 00:54 undefined 56 13.3 37 2.8 49 49 undefined N/A 30.37 1028 N/A 0 0
1:54 am 01:54 undefined 56 13.3 38 3.3 51 51 undefined N/A 30.35 1028 N/A 0 0
2:54 am 02:54 undefined 56 13.3 37 2.8 49 49 undefined N/A 30.34 1028 N/A 0 0
3:54 am 03:54 undefined 55 12.8 38 3.3 53 53 undefined N/A 30.35 1028 N/A 0 0
4:54 am 04:54 undefined 55 12.8 38 3.3 53 53 undefined N/A 30.33 1027 N/A 0 0
5:54 am 05:54 undefined 54 12.2 37 2.8 53 53 undefined N/A 30.32 1027 N/A 0 0
6:54 am 06:54 undefined 54 12.2 38 3.3 55 55 undefined N/A 30.32 1027 N/A 0 0
7:54 am 07:54 undefined 55 12.8 40 4.4 57 57 undefined N/A 30.32 1027 N/A 0 0
8:54 am 08:54 undefined 56 13.3 42 5.6 60 60 undefined N/A 30.31 1026 N/A 0 0
9:54 am 09:54 undefined 59 15 44 6.7 58 58 undefined N/A 30.29 1026 N/A 0 0
10:54 am 10:54 undefined 62 16.7 46 7.8 56 56 undefined N/A 30.29 1026 N/A 0 0
11:54 am 11:54 undefined 63 17.2 47 8.3 56 56 undefined N/A 30.27 1025 N/A 0 0
12:54 pm 12:54 undefined 63 17.2 47 8.3 56 56 undefined N/A 30.24 1024 N/A 0 0
1:54 pm 13:54 undefined 64 17.8 47 8.3 54 54 undefined N/A 30.22 1023 N/A 0 0
2:54 pm 14:54 undefined 65 18.3 47 8.3 52 52 undefined N/A 30.18 1022 N/A 0 0
3:54 pm 15:54 undefined 63 17.2 47 8.3 56 56 undefined N/A 30.15 1021 N/A 0 0
4:54 pm 16:54 undefined 63 17.2 48 8.9 58 58 undefined N/A 30.12 1020 N/A 0 0
5:54 pm 17:54 undefined 61 16.1 49 9.4 65 65 undefined N/A 30.11 1020 N/A 0 0
6:54 pm 18:54 undefined 59 15 51 10.6 75 75 undefined N/A 30.1 1019 N/A 0 0
7:54 pm 19:54 undefined 56 13.3 52 11.1 87 87 undefined N/A 30.09 1019 N/A 0 0
8:54 pm 20:54 undefined 55 12.8 52 11.1 90 90 undefined N/A 30.09 1019 N/A 0.09 2.286
9:54 pm 21:54 undefined 55 12.8 53 11.7 93 93 undefined N/A 30.06 1018 N/A 0.05 1.27
10:54 pm 22:54 undefined 55 12.8 53 11.7 93 93 undefined N/A 30.01 1016 N/A 0.1 2.54
11:54 pm 23:54 undefined 55 12.8 53 11.7 93 93 undefined N/A 29.97 1015 N/A 0.15 3.81

Powered by AerisWeather